Project,Study,Ord_Occ,Event_Num,Cast_ID,Date_Time_UTC,Date_Time_PST,Lat_Dec,Lon_Dec,Sta_ID,Line,Sta,Depth,Pressure,PrQ,Temp1,Temp1Q,Temp2,Temp2Q,TempAve,Salt1,Salt1Q,Salt1_Corr,Salt2,Salt2Q,Salt2_Corr,SaltAve_Corr,Ox1,Ox1Q,Ox1_CruiseCorr,Ox1_StaCorr,Ox2,Ox2Q,Ox2_CruiseCorr,Ox2_StaCorr,OxAve_StaCorr,Ox1uM,Ox1uM_CruiseCorr,Ox1uM_StaCorr,Ox2uM,Ox2uM_CruiseCorr,Ox2uM_StaCorr,OxAveuM_StaCorr,FluorV,FluorQ,EstChl_CruiseCorr,EstChl_StaCorr,ISUSV,ISUSQ,EstNO3_CruiseCorr,EstNO3_StaCorr,SigThetaTS1,SigThetaTS1Q,SigThetaTS2,SigThetaTS2Q,BAT,XMiss,TransQ,pH,pHQ,SPAR,SPARQ,PAR,PARQ,PoT1,PoT2,DynHt,SVA,OxSat1,OxSat2,BTL_Depth,BTL_Temp,SaltB,OxB,OxBuM,Chl-a,Phaeo,NO3,NO2,NH4,PO4,SIL
CalCOFI,2101RL,067,,2101_067d,01-Feb-2021 15:38:11,01-Feb-2021 07:38:11,33.71822,-123.63180,076.7 090.0,076.7,090.0,3.000,3.022,,14.1941,,14.1941,,14.1941,32.9889,,32.9947,32.9883,,32.9903,32.9925,5.6118,,5.8732,6.1555,5.4936,,5.8328,6.1129,6.1342,244.606,256.3138,268.7107,239.456,272.4581,266.8566,267.7837,0.0844,,0.4434,0.4586, ,, , ,24.5930,,24.5926,,0.7909,82.0597,,,,7.3870E+01,,1.0000E-12,,14.1936,14.1936,-0.0007,333.606,95.805,93.788,,,,,,,,,,,,
CalCOFI,2101RL,067,,2101_067d,01-Feb-2021 15:38:12,01-Feb-2021 07:38:12,33.71822,-123.63180,076.7 090.0,076.7,090.0,4.000,4.029,,14.1948,,14.1944,,14.1946,32.9885,,32.9943,32.9848,,32.9868,32.9906,5.6164,,5.8780,6.1605,5.5135,,5.8539,6.1348,6.1477,244.808,256.5252,268.9283,240.322,272.6827,267.8097,268.3690,0.0859,,0.4557,0.4696, ,, , ,24.5927,,24.5899,,0.7891,82.0965,,,,7.3946E+01,,1.0000E-12,,14.1942,14.1938,0.0027,333.670,95.885,94.125,4,,32.9783,5.910,257.97,0.556,0.054,,,,,
CalCOFI,2101RL,067,,2101_067d,01-Feb-2021 15:38:20,01-Feb-2021 07:38:20,33.71820,-123.63175,076.7 090.0,076.7,090.0,5.000,5.036,,14.1940,,14.1942,,14.1941,32.9886,,32.9944,32.9872,,32.9892,32.9918,5.6196,,5.8814,6.1639,5.5171,,5.8577,6.1388,6.1514,244.948,256.6718,269.0792,240.481,272.8384,267.9847,268.5320,0.0896,,0.4860,0.4968, ,, , ,24.5929,,24.5918,,0.7884,82.1106,,,,7.5185E+01,,1.0000E-12,,14.1933,14.1935,0.0093,333.677,95.939,94.189,,,,,,,,,,,,
CalCOFI,2101RL,067,,2101_067d,01-Feb-2021 15:38:26,01-Feb-2021 07:38:26,33.71817,-123.63171,076.7 090.0,076.7,090.0,6.000,6.043,,14.1938,,14.1939,,14.1939,32.9886,,32.9944,32.9872,,32.9892,32.9918,5.6160,,5.8776,6.1600,5.5300,,5.8714,6.1530,6.1565,244.791,256.5074,268.9100,241.042,272.6638,268.6021,268.7561,0.0874,,0.4680,0.4806, ,, , ,24.5930,,24.5919,,0.7890,82.0999,,,,7.5785E+01,,1.0000E-12,,14.1929,14.1930,0.0147,333.695,95.877,94.408,,,,,,,,,,,,
CalCOFI,2101RL,067,,2101_067d,01-Feb-2021 15:38:28,01-Feb-2021 07:38:28,33.71816,-123.63169,076.7 090.0,076.7,090.0,7.000,7.050,,14.1942,,14.1945,,14.1944,32.9887,,32.9945,32.9872,,32.9892,32.9919,5.6182,,5.8799,6.1624,5.5244,,5.8655,6.1468,6.1546,244.884,256.6048,269.0102,240.797,272.7672,268.3325,268.6714,0.0897,,0.4868,0.4975, ,, , ,24.5930,,24.5918,,0.7890,82.0979,,,,7.5742E+01,,1.0000E-12,,14.1932,14.1935,0.0179,333.724,95.914,94.313,,,,,,,,,,,,
CalCOFI,2101RL,067,,2101_067d,01-Feb-2021 15:38:29,01-Feb-2021 07:38:29,33.71816,-123.63168,076.7 090.0,076.7,090.0,8.000,8.057,,14.1945,,14.1950,,14.1948,32.9888,,32.9946,32.9873,,32.9893,32.9920,5.6143,,5.8758,6.1582,5.5227,,5.8637,6.1449,6.1516,244.717,256.4300,268.8303,240.723,272.5815,268.2510,268.5407,0.0877,,0.4704,0.4828, ,, , ,24.5931,,24.5918,,0.7882,82.1160,,,,7.5742E+01,,1.0000E-12,,14.1934,14.1938,0.0213,333.748,95.850,94.285,,,,,,,,,,,,
CalCOFI,2101RL,067,,2101_067d,01-Feb-2021 15:38:31,01-Feb-2021 07:38:31,33.71815,-123.63168,076.7 090.0,076.7,090.0,9.000,9.065,,14.1944,,14.1948,,14.1946,32.9888,,32.9946,32.9872,,32.9892,32.9919,5.6209,,5.8827,6.1653,5.5090,,5.8491,6.1299,6.1476,245.006,256.7325,269.1417,240.127,272.9029,267.5951,268.3684,0.0832,,0.4335,0.4498, ,, , ,24.5931,,24.5918,,0.7881,82.1167,,,,7.5742E+01,,1.0000E-12,,14.1931,14.1935,0.0247,333.774,95.962,94.051,,,,,,,,,,,,
CalCOFI,2101RL,067,,2101_067d,01-Feb-2021 15:38:33,01-Feb-2021 07:38:33,33.71814,-123.63168,076.7 090.0,076.7,090.0,10.000,10.072,,14.1948,,14.1951,,14.1950,32.9888,,32.9946,32.9873,,32.9893,32.9920,5.6199,,5.8817,6.1642,5.5133,,5.8537,6.1346,6.1494,244.962,256.6864,269.0943,240.315,272.8540,267.8020,268.4482,0.0839,,0.4393,0.4549, ,, , ,24.5931,,24.5918,,0.7940,81.9965,,,,7.7004E+01,,1.0000E-12,,14.1934,14.1937,0.0280,333.806,95.946,94.125,10,,32.9791,5.901,257.56,0.500,0.086,,,,,
CalCOFI,2101RL,067,,2101_067d,01-Feb-2021 15:38:34,01-Feb-2021 07:38:34,33.71814,-123.63168,076.7 090.0,076.7,090.0,11.000,11.079,,14.1951,,14.1958,,14.1955,32.9890,,32.9948,32.9874,,32.9894,32.9921,5.6241,,5.8861,6.1688,5.5161,,5.8566,6.1377,6.1533,245.141,256.8738,269.2872,240.435,273.0530,267.9341,268.6107,0.0909,,0.4966,0.5063, ,, , ,24.5932,,24.5918,,0.7884,82.1112,,,,7.6850E+01,,1.0000E-12,,14.1935,14.1942,0.0314,333.821,96.017,94.174,,,,,,,,,,,,
CalCOFI,2101RL,067,,2101_067d,01-Feb-2021 15:38:34,01-Feb-2021 07:38:34,33.71812,-123.63166,076.7 090.0,076.7,090.0,12.000,12.086,,14.1967,,14.1971,,14.1969,32.9891,,32.9949,32.9874,,32.9894,32.9922,5.6264,,5.8885,6.1712,5.5171,,5.8577,6.1388,6.1550,245.245,256.9827,269.3992,240.479,273.1687,267.9825,268.6909,0.0869,,0.4639,0.4770, ,, , ,24.5930,,24.5916,,0.7891,82.0970,,,,7.7568E+01,,1.0000E-12,,14.1950,14.1954,0.0347,333.870,96.061,94.194,,,,,,,,,,,,
CalCOFI,2101RL,067,,2101_067d,01-Feb-2021 15:38:35,01-Feb-2021 07:38:35,33.71812,-123.63166,076.7 090.0,076.7,090.0,13.000,13.094,,14.1969,,14.1971,,14.1970,32.9888,,32.9946,32.9874,,32.9894,32.9920,5.6253,,5.8873,6.1701,5.5203,,5.8611,6.1423,6.1562,245.197,256.9324,269.3475,240.620,273.1153,268.1377,268.7426,0.0881,,0.4737,0.4858, ,, , ,24.5927,,24.5916,,0.7893,82.0919,,,,7.7590E+01,,1.0000E-12,,14.1951,14.1953,0.0381,333.920,96.042,94.249,,,,,,,,,,,,
CalCOFI,2101RL,067,,2101_067d,01-Feb-2021 15:38:39,01-Feb-2021 07:38:39,33.71812,-123.63164,076.7 090.0,076.7,090.0,14.000,14.101,,14.1965,,14.1966,,14.1966,32.9886,,32.9944,32.9870,,32.9890,32.9917,5.6027,,5.8637,6.1457,5.5079,,5.8479,6.1287,6.1372,244.211,255.9003,268.2850,240.078,272.0189,267.5412,267.9131,0.0855,,0.4524,0.4667, ,, , ,24.5927,,24.5915,,0.7895,82.0885,,,,7.7590E+01,,1.0000E-12,,14.1946,14.1946,0.0417,333.954,95.655,94.035,,,,,,,,,,,,
CalCOFI,2101RL,067,,2101_067d,01-Feb-2021 15:38:41,01-Feb-2021 07:38:41,33.71812,-123.63163,076.7 090.0,076.7,090.0,15.000,15.108,,14.1955,,14.1950,,14.1953,32.9882,,32.9940,32.9866,,32.9886,32.9913,5.6099,,5.8712,6.1535,5.5329,,5.8745,6.1562,6.1549,244.525,256.2290,268.6234,241.167,272.3680,268.7397,268.6816,0.0886,,0.4778,0.4894, ,, , ,24.5926,,24.5915,,0.7892,82.0950,,,,7.7590E+01,,1.0000E-12,,14.1933,14.1928,0.0450,333.989,95.776,94.458,,,,,,,,,,,,
CalCOFI,2101RL,067,,2101_067d,01-Feb-2021 15:38:52,01-Feb-2021 07:38:52,33.71809,-123.63152,076.7 090.0,076.7,090.0,16.000,16.115,,14.1927,,14.1928,,14.1928,32.9875,,32.9933,32.9860,,32.9880,32.9907,5.5984,,5.8592,6.1411,5.5316,,5.8731,6.1547,6.1479,244.025,255.7056,268.0846,241.113,271.8120,268.6803,268.3825,0.0882,,0.4745,0.4865, ,, , ,24.5927,,24.5915,,0.7893,82.0926,,,,8.0688E+01,,1.0000E-12,,14.1905,14.1905,0.0514,334.010,95.574,94.433,,,,,,,,,,,,
CalCOFI,2101RL,067,,2101_067d,01-Feb-2021 15:39:05,01-Feb-2021 07:39:05,33.71805,-123.63146,076.7 090.0,076.7,090.0,17.000,17.122,,14.1943,,14.1949,,14.1946,32.9878,,32.9936,32.9864,,32.9884,32.9910,5.6008,,5.8617,6.1437,5.5213,,5.8622,6.1434,6.1436,244.128,255.8134,268.1956,240.663,271.9266,268.1850,268.1903,0.0879,,0.4721,0.4843, ,, , ,24.5926,,24.5914,,0.7898,82.0818,,,,8.3772E+01,,1.0000E-12,,14.1918,14.1924,0.0582,334.049,95.618,94.260,,,,,,,,,,,,
CalCOFI,2101RL,067,,2101_067d,01-Feb-2021 15:39:06,01-Feb-2021 07:39:06,33.71804,-123.63146,076.7 090.0,076.7,090.0,18.000,18.130,,14.1946,,14.1947,,14.1947,32.9877,,32.9935,32.9862,,32.9882,32.9909,5.6126,,5.8740,6.1564,5.5108,,5.8510,6.1319,6.1442,244.641,256.3504,268.7484,240.204,272.4970,267.6798,268.2141,0.0902,,0.4909,0.5012, ,, , ,24.5925,,24.5914,,0.7900,82.0783,,,,8.4820E+01,,1.0000E-12,,14.1920,14.1921,0.0613,334.083,95.819,94.080,,,,,,,,,,,,
CalCOFI,2101RL,067,,2101_067d,01-Feb-2021 15:39:08,01-Feb-2021 07:39:08,33.71804,-123.63144,076.7 090.0,076.7,090.0,19.000,19.137,,14.1942,,14.1942,,14.1942,32.9878,,32.9936,32.9862,,32.9882,32.9909,5.6055,,5.8666,6.1487,5.5087,,5.8488,6.1295,6.1391,244.333,256.0280,268.4165,240.115,272.1545,267.5819,267.9992,0.0891,,0.4819,0.4931, ,, , ,24.5927,,24.5914,,0.7902,82.0749,,,,8.4981E+01,,1.0000E-12,,14.1914,14.1915,0.0646,334.097,95.698,94.045,,,,,,,,,,,,
CalCOFI,2101RL,067,,2101_067d,01-Feb-2021 15:39:11,01-Feb-2021 07:39:11,33.71804,-123.63142,076.7 090.0,076.7,090.0,20.000,20.144,,14.1946,,14.1946,,14.1946,32.9877,,32.9935,32.9862,,32.9882,32.9909,5.5859,,5.8461,6.1276,5.5165,,5.8571,6.1381,6.1329,243.481,255.1361,267.4984,240.453,271.2071,267.9539,267.7262,0.0890,,0.4811,0.4924, ,, , ,24.5925,,24.5914,,0.7906,82.0658,,,,8.4979E+01,,1.0000E-12,,14.1917,14.1918,0.0680,334.139,95.365,94.178,20,,32.9799,5.880,256.66,0.613,-0.023,,,,,
CalCOFI,2101RL,067,,2101_067d,01-Feb-2021 15:39:12,01-Feb-2021 07:39:12,33.71804,-123.63140,076.7 090.0,076.7,090.0,21.000,21.151,,14.1949,,14.1953,,14.1951,32.9875,,32.9933,32.9862,,32.9882,32.9908,5.6103,,5.8716,6.1539,5.5145,,5.8550,6.1359,6.1449,244.542,256.2468,268.6417,240.366,272.3869,267.8581,268.2499,0.0946,,0.5270,0.5335, ,, , ,24.5924,,24.5913,,0.7903,82.0711,,,,8.4979E+01,,1.0000E-12,,14.1919,14.1923,0.0714,334.180,95.781,94.145,,,,,,,,,,,,
CalCOFI,2101RL,067,,2101_067d,01-Feb-2021 15:39:14,01-Feb-2021 07:39:14,33.71804,-123.63139,076.7 090.0,076.7,090.0,22.000,22.159,,14.1925,,14.1933,,14.1929,32.9872,,32.9930,32.9859,,32.9879,32.9905,5.6008,,5.8617,6.1437,5.5216,,5.8625,6.1437,6.1437,244.127,255.8123,268.1945,240.675,271.9255,268.1982,268.1964,0.0934,,0.5171,0.5247, ,, , ,24.5927,,24.5915,,0.7907,82.0632,,,,8.6064E+01,,1.0000E-12,,14.1894,14.1902,0.0747,334.182,95.613,94.262,,,,,,,,,,,,
CalCOFI,2101RL,067,,2101_067d,01-Feb-2021 15:39:18,01-Feb-2021 07:39:18,33.71802,-123.63136,076.7 090.0,076.7,090.0,23.000,23.166,,14.1941,,14.1933,,14.1937,32.9874,,32.9932,32.9858,,32.9878,32.9905,5.5987,,5.8595,6.1414,5.5530,,5.8958,6.1782,6.1598,244.038,255.7192,268.0986,242.044,271.8265,269.7049,268.9018,0.0890,,0.4811,0.4924, ,, , ,24.5925,,24.5914,,0.7904,82.0701,,,,8.6957E+01,,1.0000E-12,,14.1908,14.1900,0.0781,334.230,95.582,94.798,,,,,,,,,,,,
CalCOFI,2101RL,067,,2101_067d,01-Feb-2021 15:39:19,01-Feb-2021 07:39:19,33.71802,-123.63136,076.7 090.0,076.7,090.0,24.000,24.173,,14.1887,,14.1887,,14.1887,32.9863,,32.9921,32.9848,,32.9868,32.9895,5.5857,,5.8459,6.1274,5.5414,,5.8835,6.1655,6.1465,243.471,255.1256,267.4876,241.541,271.1960,269.1513,268.3195,0.0954,,0.5335,0.5393, ,, , ,24.5928,,24.5917,,0.7910,82.0576,,,,8.6827E+01,,1.0000E-12,,14.1852,14.1853,0.0815,334.229,95.349,94.592,,,,,,,,,,,,
CalCOFI,2101RL,067,,2101_067d,01-Feb-2021 15:39:20,01-Feb-2021 07:39:20,33.71802,-123.63138,076.7 090.0,076.7,090.0,25.000,25.181,,14.1867,,14.1865,,14.1866,32.9857,,32.9915,32.9842,,32.9862,32.9889,5.5986,,5.8594,6.1413,5.5250,,5.8661,6.1475,6.1444,244.033,255.7139,268.0932,240.826,271.8209,268.3644,268.2288,0.0952,,0.5319,0.5379, ,, , ,24.5929,,24.5917,,0.7904,82.0696,,,,8.6827E+01,,1.0000E-12,,14.1831,14.1829,0.0848,334.252,95.564,94.307,,,,,,,,,,,,
CalCOFI,2101RL,067,,2101_067d,01-Feb-2021 15:39:22,01-Feb-2021 07:39:22,33.71802,-123.63138,076.7 090.0,076.7,090.0,26.000,26.188,,14.1862,,14.1865,,14.1864,32.9856,,32.9914,32.9841,,32.9861,32.9888,5.6152,,5.8768,6.1592,5.5202,,5.8610,6.1422,6.1507,244.753,256.4676,268.8690,240.615,272.6216,268.1322,268.5006,0.0958,,0.5368,0.5423, ,, , ,24.5928,,24.5917,,0.7912,82.0539,,,,8.7219E+01,,1.0000E-12,,14.1825,14.1828,0.0882,334.282,95.846,94.225,,,,,,,,,,,,
CalCOFI,2101RL,067,,2101_067d,01-Feb-2021 15:39:24,01-Feb-2021 07:39:24,33.71802,-123.63135,076.7 090.0,076.7,090.0,27.000,27.195,,14.1864,,14.1865,,14.1865,32.9857,,32.9915,32.9841,,32.9861,32.9888,5.6062,,5.8673,6.1495,5.5275,,5.8688,6.1502,6.1499,244.362,256.0583,268.4477,240.935,272.1868,268.4844,268.4661,0.0984,,0.5581,0.5614, ,, , ,24.5930,,24.5917,,0.7919,82.0393,,,,8.8631E+01,,1.0000E-12,,14.1825,14.1826,0.0916,334.299,95.693,94.350,,,,,,,,,,,,
CalCOFI,2101RL,067,,2101_067d,01-Feb-2021 15:39:26,01-Feb-2021 07:39:26,33.71801,-123.63134,076.7 090.0,076.7,090.0,28.000,28.202,,14.1830,,14.1834,,14.1832,32.9849,,32.9907,32.9835,,32.9855,32.9881,5.6030,,5.8640,6.1461,5.5132,,5.8536,6.1345,6.1403,244.222,255.9118,268.2968,240.309,272.0311,267.7954,268.0461,0.0917,,0.5032,0.5122, ,, , ,24.5931,,24.5919,,0.7912,82.0535,,,,8.8876E+01,,1.0000E-12,,14.1790,14.1794,0.0949,334.316,95.631,94.099,,,,,,,,,,,,
CalCOFI,2101RL,067,,2101_067d,01-Feb-2021 15:39:29,01-Feb-2021 07:39:29,33.71800,-123.63134,076.7 090.0,076.7,090.0,29.000,29.210,,14.1789,,14.1783,,14.1786,32.9842,,32.9900,32.9826,,32.9846,32.9873,5.5985,,5.8593,6.1412,5.5160,,5.8565,6.1376,6.1394,244.025,255.7056,268.0846,240.431,271.8120,267.9297,268.0072,0.0948,,0.5286,0.5349, ,, , ,24.5934,,24.5923,,0.7923,82.0304,,,,9.0574E+01,,1.0000E-12,,14.1747,14.1741,0.0983,334.311,95.546,94.136,,,,,,,,,,,,
CalCOFI,2101RL,067,,2101_067d,01-Feb-2021 15:39:31,01-Feb-2021 07:39:31,33.71800,-123.63132,076.7 090.0,076.7,090.0,30.000,30.217,,14.1780,,14.1780,,14.1780,32.9840,,32.9898,32.9824,,32.9844,32.9871,5.6078,,5.8690,6.1512,5.5159,,5.8564,6.1375,6.1444,244.433,256.1327,268.5242,240.429,272.2657,267.9275,268.2259,0.0987,,0.5606,0.5636, ,, , ,24.5935,,24.5923,,0.7920,82.0364,,,,9.0521E+01,,1.0000E-12,,14.1737,14.1737,0.1017,334.333,95.704,94.134,,,,,,,,,,,,
CalCOFI,2101RL,067,,2101_067d,01-Feb-2021 15:39:32,01-Feb-2021 07:39:32,33.71800,-123.63132,076.7 090.0,076.7,090.0,31.000,31.224,,14.1746,,14.1749,,14.1748,32.9835,,32.9893,32.9819,,32.9839,32.9866,5.6220,,5.8839,6.1665,5.5034,,5.8432,6.1237,6.1451,245.050,256.7785,269.1891,239.885,272.9518,267.3288,268.2590,0.0973,,0.5491,0.5533, ,, , ,24.5938,,24.5925,,0.7919,82.0389,,,,9.0521E+01,,1.0000E-12,,14.1701,14.1705,0.1050,334.332,95.938,93.915,,,,,,,,,,,,
CalCOFI,2101RL,067,,2101_067d,01-Feb-2021 15:39:35,01-Feb-2021 07:39:35,33.71798,-123.63132,076.7 090.0,076.7,090.0,32.000,32.232,,14.1708,,14.1718,,14.1713,32.9828,,32.9886,32.9815,,32.9835,32.9861,5.6006,,5.8615,6.1435,5.5280,,5.8693,6.1508,6.1472,244.121,255.8061,268.1880,240.953,271.9188,268.5042,268.3461,0.0962,,0.5401,0.5452, ,, , ,24.5941,,24.5929,,0.7930,82.0170,,,,9.0607E+01,,1.0000E-12,,14.1663,14.1672,0.1084,334.336,95.566,94.327,,,,,,,,,,,,
CalCOFI,2101RL,067,,2101_067d,01-Feb-2021 15:39:38,01-Feb-2021 07:39:38,33.71800,-123.63134,076.7 090.0,076.7,090.0,33.000,33.239,,14.1704,,14.1709,,14.1707,32.9827,,32.9885,32.9812,,32.9832,32.9859,5.6102,,5.8715,6.1538,5.5136,,5.8540,6.1349,6.1444,244.535,256.2394,268.6341,240.328,272.3792,267.8163,268.2252,0.0996,,0.5679,0.5702, ,, , ,24.5941,,24.5929,,0.7918,82.0401,,,,9.2113E+01,,1.0000E-12,,14.1657,14.1662,0.1118,334.357,95.728,94.081,,,,,,,,,,,,
CalCOFI,2101RL,067,,2101_067d,01-Feb-2021 15:39:39,01-Feb-2021 07:39:39,33.71800,-123.63134,076.7 090.0,076.7,090.0,34.000,34.246,,14.1710,,14.1714,,14.1712,32.9828,,32.9886,32.9813,,32.9833,32.9860,5.6076,,5.8688,6.1510,5.5049,,5.8448,6.1254,6.1382,244.424,256.1232,268.5145,239.947,272.2557,267.3970,267.9558,0.1036,,0.6007,0.5995, ,, , ,24.5941,,24.5929,,0.7922,82.0321,,,,9.2365E+01,,1.0000E-12,,14.1661,14.1666,0.1151,334.385,95.686,93.933,,,,,,,,,,,,
CalCOFI,2101RL,067,,2101_067d,01-Feb-2021 15:39:40,01-Feb-2021 07:39:40,33.71800,-123.63132,076.7 090.0,076.7,090.0,35.000,35.254,,14.1730,,14.1735,,14.1733,32.9832,,32.9890,32.9816,,32.9836,32.9863,5.5998,,5.8607,6.1426,5.5022,,5.8419,6.1224,6.1325,244.084,255.7673,268.1481,239.829,271.8776,267.2671,267.7076,0.1113,,0.6638,0.6560, ,, , ,24.5940,,24.5927,,0.7922,82.0330,,,,9.2369E+01,,1.0000E-12,,14.1680,14.1685,0.1185,334.426,95.556,93.891,,,,,,,,,,,,
CalCOFI,2101RL,067,,2101_067d,01-Feb-2021 15:39:42,01-Feb-2021 07:39:42,33.71799,-123.63129,076.7 090.0,076.7,090.0,36.000,36.261,,14.1752,,14.1755,,14.1754,32.9834,,32.9892,32.9820,,32.9840,32.9866,5.6005,,5.8614,6.1434,5.4960,,5.8353,6.1156,6.1295,244.115,255.7998,268.1815,239.558,271.9121,266.9689,267.5752,0.0998,,0.5696,0.5716, ,, , ,24.5938,,24.5926,,0.7923,82.0301,,,,9.2369E+01,,1.0000E-12,,14.1700,14.1704,0.1219,334.477,95.573,93.789,,,,,,,,,,,,
CalCOFI,2101RL,067,,2101_067d,01-Feb-2021 15:39:45,01-Feb-2021 07:39:45,33.71798,-123.63126,076.7 090.0,076.7,090.0,37.000,37.268,,14.1741,,14.1738,,14.1740,32.9833,,32.9891,32.9817,,32.9837,32.9864,5.5902,,5.8506,6.1323,5.4934,,5.8325,6.1127,6.1225,243.665,255.3287,267.6966,239.448,271.4117,266.8478,267.2722,0.1003,,0.5737,0.5753, ,, , ,24.5940,,24.5928,,0.7925,82.0268,,,,9.3390E+01,,1.0000E-12,,14.1688,14.1685,0.1252,334.485,95.395,93.742,,,,,,,,,,,,
CalCOFI,2101RL,067,,2101_067d,01-Feb-2021 15:39:48,01-Feb-2021 07:39:48,33.71796,-123.63126,076.7 090.0,076.7,090.0,38.000,38.276,,14.1706,,14.1723,,14.1715,32.9825,,32.9883,32.9813,,32.9833,32.9858,5.5876,,5.8479,6.1295,5.4765,,5.8146,6.0941,6.1118,243.550,255.2083,267.5727,238.708,271.2838,266.0334,266.8031,0.1027,,0.5933,0.5929, ,, , ,24.5941,,24.5929,,0.7934,82.0084,,,,9.4297E+01,,1.0000E-12,,14.1652,14.1668,0.1286,334.506,95.343,93.450,,,,,,,,,,,,
CalCOFI,2101RL,067,,2101_067d,01-Feb-2021 15:39:49,01-Feb-2021 07:39:49,33.71795,-123.63126,076.7 090.0,076.7,090.0,39.000,39.283,,14.1508,,14.1523,,14.1516,32.9792,,32.9850,32.9779,,32.9799,32.9825,5.5892,,5.8496,6.1312,5.4895,,5.8284,6.1084,6.1198,243.621,255.2827,267.6492,239.276,271.3628,266.6585,267.1539,0.1093,,0.6474,0.6414, ,, , ,24.5957,,24.5944,,0.7942,81.9926,,,,9.4216E+01,,1.0000E-12,,14.1452,14.1467,0.1320,334.375,95.330,93.632,,,,,,,,,,,,
CalCOFI,2101RL,067,,2101_067d,01-Feb-2021 15:39:51,01-Feb-2021 07:39:51,33.71794,-123.63126,076.7 090.0,076.7,090.0,40.000,40.290,,14.1502,,14.1495,,14.1499,32.9790,,32.9848,32.9774,,32.9794,32.9821,5.5914,,5.8519,6.1336,5.4999,,5.8394,6.1199,6.1268,243.719,255.3852,267.7548,239.729,271.4718,267.1571,267.4560,0.1110,,0.6613,0.6538, ,, , ,24.5957,,24.5946,,0.7938,82.0005,,,,9.4216E+01,,1.0000E-12,,14.1445,14.1437,0.1353,334.405,95.367,93.804,,,,,,,,,,,,
CalCOFI,2101RL,067,,2101_067d,01-Feb-2021 15:39:53,01-Feb-2021 07:39:53,33.71794,-123.63126,076.7 090.0,076.7,090.0,41.000,41.298,,14.1503,,14.1511,,14.1507,32.9791,,32.9849,32.9775,,32.9795,32.9822,5.5998,,5.8607,6.1426,5.4957,,5.8350,6.1153,6.1290,244.084,255.7673,268.1481,239.547,271.8776,266.9568,267.5525,0.1075,,0.6327,0.6281, ,, , ,24.5958,,24.5944,,0.7933,82.0105,,,,9.4611E+01,,1.0000E-12,,14.1445,14.1452,0.1387,334.423,95.511,93.736,,,,,,,,,,,,
CalCOFI,2101RL,067,,2101_067d,01-Feb-2021 15:39:55,01-Feb-2021 07:39:55,33.71794,-123.63126,076.7 090.0,076.7,090.0,42.000,42.305,,14.1498,,14.1498,,14.1498,32.9791,,32.9849,32.9776,,32.9796,32.9823,5.5923,,5.8528,6.1345,5.4908,,5.8298,6.1099,6.1222,243.757,255.4250,267.7958,239.334,271.5140,266.7224,267.2591,0.1052,,0.6138,0.6113, ,, , ,24.5959,,24.5948,,0.7932,82.0137,,,,9.6091E+01,,1.0000E-12,,14.1437,14.1437,0.1421,334.439,95.382,93.650,,,,,,,,,,,,
CalCOFI,2101RL,067,,2101_067d,01-Feb-2021 15:39:57,01-Feb-2021 07:39:57,33.71794,-123.63126,076.7 090.0,076.7,090.0,43.000,43.313,,14.1505,,14.1504,,14.1505,32.9794,,32.9852,32.9776,,32.9796,32.9824,5.5844,,5.8445,6.1260,5.4956,,5.8349,6.1151,6.1206,243.411,255.0628,267.4229,239.543,271.1292,266.9524,267.1877,0.1059,,0.6196,0.6164, ,, , ,24.5960,,24.5947,,0.7926,82.0248,,,,9.6063E+01,,1.0000E-12,,14.1443,14.1443,0.1455,334.460,95.248,93.733,,,,,,,,,,,,
CalCOFI,2101RL,067,,2101_067d,01-Feb-2021 15:39:59,01-Feb-2021 07:39:59,33.71794,-123.63124,076.7 090.0,076.7,090.0,44.000,44.320,,14.1492,,14.1492,,14.1492,32.9791,,32.9849,32.9777,,32.9797,32.9823,5.5790,,5.8389,6.1202,5.5021,,5.8418,6.1223,6.1213,243.179,254.8200,267.1729,239.826,270.8713,267.2638,267.2184,0.1058,,0.6187,0.6157, ,, , ,24.5961,,24.5950,,0.7930,82.0177,,,,9.6063E+01,,1.0000E-12,,14.1429,14.1429,0.1488,334.481,95.154,93.841,,,,,,,,,,,,
CalCOFI,2101RL,067,,2101_067d,01-Feb-2021 15:40:01,01-Feb-2021 07:40:01,33.71792,-123.63118,076.7 090.0,076.7,090.0,45.000,45.327,,14.1500,,14.1500,,14.1500,32.9793,,32.9851,32.9778,,32.9798,32.9825,5.5984,,5.8592,6.1411,5.4952,,5.8345,6.1147,6.1279,244.021,255.7014,268.0803,239.525,271.8076,266.9326,267.5065,0.1059,,0.6196,0.6164, ,, , ,24.5962,,24.5950,,0.7926,82.0248,,,,9.6063E+01,,1.0000E-12,,14.1435,14.1435,0.1522,334.504,95.485,93.725,,,,,,,,,,,,
CalCOFI,2101RL,067,,2101_067d,01-Feb-2021 15:40:05,01-Feb-2021 07:40:05,33.71792,-123.63116,076.7 090.0,076.7,090.0,46.000,46.335,,14.1512,,14.1519,,14.1516,32.9795,,32.9853,32.9781,,32.9801,32.9827,5.5932,,5.8537,6.1355,5.5012,,5.8408,6.1213,6.1284,243.797,255.4669,267.8389,239.787,271.5585,267.2209,267.5299,0.1056,,0.6171,0.6142, ,, , ,24.5961,,24.5948,,0.7925,82.0281,,,,9.6063E+01,,1.0000E-12,,14.1447,14.1453,0.1556,334.541,95.400,93.831,,,,,,,,,,,,
CalCOFI,2101RL,067,,2101_067d,01-Feb-2021 15:40:07,01-Feb-2021 07:40:07,33.71790,-123.63114,076.7 090.0,076.7,090.0,47.000,47.342,,14.1557,,14.1553,,14.1555,32.9800,,32.9858,32.9785,,32.9805,32.9832,5.6044,,5.8655,6.1476,5.4868,,5.8255,6.1055,6.1266,244.286,255.9788,268.3658,239.158,272.1023,266.5287,267.4473,0.1048,,0.6105,0.6083, ,, , ,24.5955,,24.5944,,0.7942,81.9921,,,,9.6063E+01,,1.0000E-12,,14.1489,14.1486,0.1589,334.618,95.600,93.592,,,,,,,,,,,,
CalCOFI,2101RL,067,,2101_067d,01-Feb-2021 15:40:08,01-Feb-2021 07:40:08,33.71790,-123.63114,076.7 090.0,076.7,090.0,48.000,48.349,,14.1457,,14.1506,,14.1482,32.9786,,32.9844,32.9777,,32.9797,32.9821,5.5909,,5.8513,6.1330,5.4864,,5.8251,6.1050,6.1190,243.695,255.3601,267.7289,239.141,271.4451,266.5099,267.1194,0.1068,,0.6269,0.6230, ,, , ,24.5965,,24.5948,,0.7931,82.0159,,,,9.6063E+01,,1.0000E-12,,14.1389,14.1437,0.1623,334.552,95.349,93.576,,,,,,,,,,,,
CalCOFI,2101RL,067,,2101_067d,01-Feb-2021 15:40:09,01-Feb-2021 07:40:09,33.71790,-123.63114,076.7 090.0,076.7,090.0,49.000,49.357,,14.1425,,14.1428,,14.1427,32.9787,,32.9845,32.9772,,32.9792,32.9819,5.5758,,5.8355,6.1168,5.4927,,5.8318,6.1120,6.1144,243.037,254.6713,267.0199,239.418,270.7134,266.8148,266.9174,0.1102,,0.6548,0.6480, ,, , ,24.5974,,24.5961,,0.7926,82.0251,,,,9.6063E+01,,1.0000E-12,,14.1355,14.1358,0.1657,334.503,95.086,93.669,,,,,,,,,,,,
CalCOFI,2101RL,067,,2101_067d,01-Feb-2021 15:40:10,01-Feb-2021 07:40:10,33.71790,-123.63114,076.7 090.0,076.7,090.0,50.000,50.364,,14.1411,,14.1413,,14.1412,32.9785,,32.9843,32.9770,,32.9790,32.9817,5.5807,,5.8407,6.1220,5.4977,,5.8371,6.1175,6.1198,243.252,254.8964,267.2516,239.634,270.9524,267.0525,267.1521,0.1161,,0.7031,0.6913, ,, , ,24.5975,,24.5963,,0.7921,82.0343,,,,9.6063E+01,,1.0000E-12,,14.1339,14.1342,0.1690,334.517,95.167,93.751,50,,32.9803,5.913,258.08,0.500,0.061,,,,,
CalCOFI,2101RL,067,,2101_067d,01-Feb-2021 15:40:14,01-Feb-2021 07:40:14,33.71789,-123.63113,076.7 090.0,076.7,090.0,51.000,51.372,,14.1425,,14.1426,,14.1426,32.9787,,32.9845,32.9771,,32.9791,32.9818,5.5910,,5.8514,6.1331,5.4926,,5.8317,6.1118,6.1225,243.699,255.3643,267.7332,239.411,271.4495,266.8071,267.2702,0.1107,,0.6589,0.6516, ,, , ,24.5974,,24.5961,,0.7922,82.0324,,,,9.6063E+01,,1.0000E-12,,14.1352,14.1353,0.1724,334.556,95.345,93.666,,,,,,,,,,,,
CalCOFI,2101RL,067,,2101_067d,01-Feb-2021 15:40:17,01-Feb-2021 07:40:17,33.71788,-123.63112,076.7 090.0,076.7,090.0,52.000,52.379,,14.1389,,14.1392,,14.1391,32.9783,,32.9841,32.9768,,32.9788,32.9815,5.5764,,5.8362,6.1174,5.5006,,5.8402,6.1206,6.1190,243.065,254.7006,267.0500,239.758,270.7445,267.1890,267.1195,0.1087,,0.6425,0.6370, ,, , ,24.5979,,24.5966,,0.7917,82.0426,,,,9.6063E+01,,1.0000E-12,,14.1314,14.1318,0.1758,334.540,95.089,93.795,,,,,,,,,,,,